Weather History for KLHB - January, 2013

Change the Weather History Date:

Wednesday, January 9, 2013

  Actual Average (KCLL) Record (KCLL)
Temperature  
Mean Temperature 64 °F 51 °F  
Max Temperature 69 °F 61 °F 84 °F (1917)
Min Temperature 59 °F 41 °F 18 °F (2010)
Degree Days  
Heating Degree Days 1 15  
Month to date heating degree days 135  
Since 1 July heating degree days 771  
Cooling Degree Days 0 0  
Month to date cooling degree days 0  
Year to date cooling degree days 0  
Growing Degree Days 14 (Base 50)    
Moisture  
Dew Point 57 °F    
Average Humidity 75    
Maximum Humidity 83    
Minimum Humidity 68    
Precipitation  
Precipitation 0.02 in 0.10 in 5.63 in (1991)
Month to date precipitation 0.92  
Year to date precipitation 0.92  
Sea Level Pressure  
Sea Level Pressure 29.96 in    
Wind  
Wind Speed 4 mph (East)    
Max Wind Speed 20 mph    
Max Gust Speed 30 mph    
Visibility 7 miles    
Events Rain , Thunderstorm    
T = Trace of Precipitation, MM = Missing Value Source: NWS Daily Summary

Daily Weather History Graph

Daily Weather History Graph

Search for Another Location

Airport or City:

Trip Planner

Search our weather history database for the weather conditions in past years. The results will help you decide how hot, cold, wet, or windy it might be!

Date:

Astronomy

Jan. 09, 2013 Rise Set
Actual Time 7:25 AM CST 5:42 PM CST
Civil Twilight 6:59 AM CST 6:08 PM CST
Nautical Twilight 6:29 AM CST 6:38 PM CST
Astronomical Twilight 6:00 AM CST 7:07 PM CST
Moon 5:05 AM CST (1/9) 3:45 PM CST (1/9)
Length of Visible Light 11h 09m
Length of Day
10h 17m
Waning Crescent, 6% of the Moon is Illuminated
Jan 9
Waning Crescent
Jan 11
New
Jan 18
First Quarter
Jan 26
Full
Feb 3
Last Quarter

Hourly Weather History & Observations

Time (CST) Temp. Dew Point Humidity Pressure Visibility Wind Dir Wind Speed Gust Speed Precip Events Conditions
12:15 AM 62.6 °F 55.4 °F 77% 29.97 in 7.0 mi Calm Calm - N/A   Drizzle
12:35 AM 62.6 °F 55.4 °F 77% 29.98 in 4.0 mi Calm Calm - N/A Rain Light Rain
12:55 AM 62.6 °F 55.4 °F 77% 29.98 in 3.0 mi Calm Calm - N/A Rain , Thunderstorm Heavy Thunderstorms and Rain
1:15 AM 62.6 °F 55.4 °F 77% 29.97 in 1.2 mi Calm Calm - N/A Rain , Thunderstorm Heavy Thunderstorms and Rain
1:35 AM 62.6 °F 55.4 °F 77% 29.99 in 3.0 mi Calm Calm - N/A Rain , Thunderstorm Heavy Thunderstorms and Rain
1:55 AM 62.6 °F 55.4 °F 77% 29.95 in 4.0 mi Calm Calm - N/A Rain , Thunderstorm Light Thunderstorms and Rain
2:15 AM 62.6 °F 55.4 °F 77% 29.96 in 10.0 mi Calm Calm - N/A Rain Light Rain
2:35 AM 62.6 °F 55.4 °F 77% 29.97 in 10.0 mi Calm Calm - N/A Rain Rain
2:55 AM 59.0 °F 51.8 °F 77% 29.96 in 4.0 mi Calm Calm - N/A Rain Rain
3:15 AM 59.0 °F 51.8 °F 77% 29.96 in 7.0 mi Calm Calm - N/A Rain Light Rain
3:35 AM 59.0 °F 51.8 °F 77% 29.96 in 3.0 mi NNW 10.4 mph - N/A Rain Heavy Rain
3:55 AM 59.0 °F 51.8 °F 77% 29.97 in 3.0 mi Calm Calm - N/A Rain Heavy Rain
4:15 AM 59.0 °F 51.8 °F 77% 29.97 in 4.0 mi NW 6.9 mph - N/A Rain Heavy Rain
4:35 AM 59.0 °F 51.8 °F 77% 29.97 in 7.0 mi Calm Calm - N/A Rain Rain
4:55 AM 60.8 °F 53.6 °F 77% 29.96 in 5.0 mi Calm Calm - 0.01 in Rain Rain
5:15 AM 60.8 °F 53.6 °F 77% 29.94 in 7.0 mi Calm Calm - N/A Rain Rain
5:35 AM 62.6 °F 53.6 °F 72% 29.93 in 10.0 mi NNE 10.4 mph - N/A   Overcast
6:15 AM 62.6 °F 55.4 °F 77% 29.94 in 7.0 mi NE 6.9 mph - N/A Rain Rain
6:35 AM 62.6 °F 55.4 °F 77% 29.94 in 4.0 mi Calm Calm - N/A Rain Rain
6:55 AM 64.4 °F 55.4 °F 73% 29.95 in 5.0 mi Calm Calm - N/A Rain Rain
7:15 AM 64.4 °F 55.4 °F 73% 29.96 in 5.0 mi Calm Calm - N/A Rain Rain
7:35 AM 64.4 °F 55.4 °F 73% 29.98 in 5.0 mi Calm Calm - N/A Rain Heavy Rain
7:55 AM 60.8 °F 53.6 °F 77% 29.98 in 5.0 mi Calm Calm - N/A Rain Rain
8:15 AM 64.4 °F 57.2 °F 77% 29.97 in 10.0 mi NE 3.5 mph - N/A Rain Light Rain
8:35 AM 64.4 °F 57.2 °F 77% 29.98 in 10.0 mi ENE 3.5 mph - N/A Rain Rain
9:15 AM 64.4 °F 57.2 °F 77% 29.99 in 7.0 mi East 5.8 mph 16.1 mph N/A Rain Light Rain
9:35 AM 64.4 °F 57.2 °F 77% 29.99 in 7.0 mi ENE 5.8 mph - N/A Rain Rain
9:55 AM 64.4 °F 59.0 °F 83% 29.98 in 10.0 mi ENE 11.5 mph 18.4 mph N/A Rain Light Rain
10:15 AM 64.4 °F 57.2 °F 77% 29.99 in 7.0 mi ENE 12.7 mph 21.9 mph N/A Rain Rain
10:35 AM 64.4 °F 57.2 °F 77% 29.98 in 7.0 mi ENE 13.8 mph 19.6 mph N/A Rain , Thunderstorm Light Thunderstorms and Rain
10:55 AM 66.2 °F 59.0 °F 78% 29.98 in 10.0 mi East 10.4 mph 23.0 mph N/A Rain Rain
11:15 AM 66.2 °F 59.0 °F 78% 30.00 in 7.0 mi East 10.4 mph 17.3 mph N/A Rain Rain
11:35 AM 66.2 °F 59.0 °F 78% 29.92 in 4.0 mi ENE 18.4 mph 27.6 mph N/A Rain Light Rain
11:55 AM 66.2 °F 59.0 °F 78% 29.92 in 10.0 mi East 15.0 mph 25.3 mph N/A Rain Light Rain
12:15 PM 66.2 °F 59.0 °F 78% 29.95 in 10.0 mi East 13.8 mph 23.0 mph N/A   Mostly Cloudy
12:35 PM 68.0 °F 59.0 °F 73% 29.95 in 10.0 mi East 10.4 mph 19.6 mph N/A Rain Light Rain
12:55 PM 68.0 °F 59.0 °F 73% 29.96 in 10.0 mi ESE 6.9 mph - N/A Rain Light Rain
1:15 PM 68.0 °F 59.0 °F 73% 29.96 in 10.0 mi East 9.2 mph 25.3 mph N/A Rain Light Rain
1:35 PM 68.0 °F 59.0 °F 73% 29.96 in 7.0 mi East 11.5 mph 17.3 mph N/A Rain Rain
2:15 PM 66.2 °F 59.0 °F 78% 29.95 in 5.0 mi East 9.2 mph 16.1 mph N/A Rain Rain
2:35 PM 66.2 °F 59.0 °F 78% 29.95 in 10.0 mi Calm Calm - N/A Rain Rain
2:55 PM 66.2 °F 59.0 °F 78% 29.97 in 10.0 mi ESE 4.6 mph - N/A Rain , Thunderstorm Light Thunderstorms and Rain
3:15 PM 66.2 °F 59.0 °F 78% 29.96 in 7.0 mi East 12.7 mph 16.1 mph N/A Rain Rain
3:35 PM 66.2 °F 59.0 °F 78% 29.90 in 10.0 mi ENE 16.1 mph 25.3 mph N/A Rain Light Rain
3:55 PM 68.0 °F 59.0 °F 73% 29.87 in 10.0 mi East 19.6 mph 27.6 mph N/A Rain Light Rain
4:15 PM 68.0 °F 59.0 °F 73% 29.88 in 10.0 mi East 18.4 mph 28.8 mph N/A   Scattered Clouds
4:35 PM 68.0 °F 59.0 °F 73% 29.87 in 10.0 mi East 13.8 mph 29.9 mph N/A   Mostly Cloudy
4:55 PM 68.0 °F 59.0 °F 73% 29.89 in 10.0 mi East 10.4 mph 24.2 mph N/A   Mostly Cloudy
5:15 PM 68.0 °F 59.0 °F 73% 29.90 in 10.0 mi East 10.4 mph - 0.01 in   Scattered Clouds
5:35 PM 68.0 °F 59.0 °F 73% 29.92 in 10.0 mi Calm Calm - 0.01 in   Scattered Clouds
5:55 PM 68.0 °F 59.0 °F 73% 29.92 in 10.0 mi East 9.2 mph - 0.01 in   Mostly Cloudy
6:15 PM 69.8 °F 59.0 °F 68% 29.94 in 10.0 mi ESE 6.9 mph - N/A   Overcast
6:35 PM 69.8 °F 59.0 °F 68% 29.95 in 10.0 mi ESE 12.7 mph 20.7 mph N/A   Overcast
6:55 PM 68.0 °F 59.0 °F 73% 29.95 in 10.0 mi ESE 4.6 mph - N/A   Overcast
7:35 PM 68.0 °F 59.0 °F 73% 29.98 in 10.0 mi Calm Calm - N/A   Overcast
7:55 PM 68.0 °F 59.0 °F 73% 29.98 in 10.0 mi Calm Calm - N/A   Overcast
8:15 PM 68.0 °F 59.0 °F 73% 29.98 in 10.0 mi Calm Calm - N/A Rain Rain
8:35 PM 68.0 °F 59.0 °F 73% 29.99 in 5.0 mi Calm Calm - N/A   Light Drizzle
8:55 PM 68.0 °F 59.0 °F 73% 29.99 in 4.0 mi Calm Calm - N/A   Haze
9:15 PM 68.0 °F 59.0 °F 73% 29.99 in 3.0 mi Calm Calm - N/A   Drizzle
9:35 PM 68.0 °F 59.0 °F 73% 29.98 in 3.0 mi Calm Calm - N/A   Haze
9:55 PM 68.0 °F 59.0 °F 73% 29.98 in 5.0 mi Calm Calm - N/A   Haze
10:15 PM 68.0 °F 59.0 °F 73% 30.01 in 10.0 mi Calm Calm - N/A   Overcast
10:35 PM 68.0 °F 59.0 °F 73% 30.00 in 7.0 mi Calm Calm - N/A   Overcast
10:55 PM 68.0 °F 59.0 °F 73% 30.00 in 7.0 mi Calm Calm - N/A   Overcast
11:15 PM 66.2 °F 59.0 °F 78% 30.02 in 5.0 mi SSE 5.8 mph - N/A   Haze
11:35 PM 64.4 °F 59.0 °F 83% 30.02 in 10.0 mi Calm Calm - N/A   Overcast
11:55 PM 64.4 °F 57.2 °F 77% 30.01 in 10.0 mi Calm Calm - N/A   Overcast